Regional Weather Roundup
Issued by NWS Midland/Odessa, TX

Skip options and go directly to product.
Home | Oldest Version | Previous Version | Current Version | All | Text Only | Save Text | Print | Product List | Glossary Off

Skip product version selection by date and time.   

737
ASUS44 KMAF 312310
RWRMAF
MIDLAND AREA WEATHER ROUNDUP
NATIONAL WEATHER SERVICE MIDLAND TX
600 PM CDT FRI JUL 31 2015

...IN SOUTHWEST TEXAS AND SOUTHEAST NEW MEXICO...

CITY           SKY/WX    TMP DP  RH WIND       PRES   REMARKS
ALPINE         MOSUNNY   89  51  26 SE10      30.23F
ANDREWS        FAIR      96  51  21 SE5       30.08F
ARTESIA        SUNNY     95  54  24 E8G15     30.10F
BIG SPRING     MOSUNNY   95  53  24 NE8       30.06F
CARLSBAD       MOSUNNY   96  49  20 SE6       30.07F
DRYDEN           N/A    100  58  24 S14G21    30.00F
FORT STOCKTON  SUNNY     96  54  24 SE8       30.06F
GUAD PASS      SUNNY     84  50  30 E15       30.26F
HOBBS          MOSUNNY   93  48  21 SE13G18   30.12F
MARFA          PTSUNNY   84  52  32 E10       30.22F
MIDLAND AIRPK  SUNNY    100  49  18 SE8G17    30.06F
MIDLAND INTL   MOSUNNY   98  53  22 E7        30.05F
ODESSA         MOSUNNY   98  49  18 VRB6G20   30.07F
PECOS          SUNNY     99  51  19 SE10      30.02F
PRESIDIO       FAIR      99  49  18 NE8G21    30.01F
SEMINOLE       MOSUNNY   96  50  21 E8        30.10F
SNYDER         SUNNY     94  67  40 NE14      30.06F
WINK           MOSUNNY   98  51  20 S7G17     30.03F
$$
...OTHER STATIONS IN TEXAS...

CITY           SKY/WX    TMP DP  RH WIND       PRES   REMARKS
ABILENE        SUNNY    100  60  26 SE7       29.99F HX 100
AMARILLO       MOSUNNY   83  63  50 E10       30.19S
AUSTIN         MOSUNNY   98  70  40 E13       29.92F HX 105
BROWNSVILLE    PTSUNNY   87  73  62 SE12      29.95F
CORPUS CHRISTI PTSUNNY   91  70  49 SW8       29.93F
DALLAS FTW     MOSUNNY   94  65  38 E12       29.98F
DEL RIO        MOSUNNY  100  64  30 E10       29.93F HX 102
EL PASO        MOSUNNY   92  52  25 VRB3      30.09F
HOUSTON INT    MOSUNNY   98  63  31 NE15G21   29.91F HX 100
LUBBOCK        PTSUNNY   83  65  54 E16G22    30.12F THUNDER
SAN ANGELO     SUNNY    101  58  24 E12       29.99F HX 100
SAN ANTONIO    PTSUNNY   84  71  65 NW8       29.95F
WACO           MOSUNNY   97  68  38 E14G23    29.95F HX 102
WICHITA FALLS  NOT AVBL
$$
...OTHER LOCATIONS IN NEW MEXICO...

CITY           SKY/WX    TMP DP  RH WIND       PRES   REMARKS
ALAMAGORDO     PTSUNNY   90  54  29 NE12G21   30.13F
ALBUQUERQUE    PTSUNNY   81  55  40 W8        30.25F
CANNON AFB     MOSUNNY   87  64  46 SE7       30.19F
CLOVIS         CLOUDY    84  61  45 E7        30.21S
HOLLOMAN AFB   MOSUNNY   90  55  30 NE18      30.10F
ROSWELL        PTSUNNY   94  53  25 MISG      30.10F
RUIDOSO          N/A    N/A N/A N/A MISG        N/A
SANTA FE       PTSUNNY   79  56  45 N14       30.32F
TRUTH OR CONSE SUNNY     87  54  32 SW7       30.18F
TUCUMCARI      MOSUNNY   84  65  52 VRB6      30.17F
$$

USA.gov is the U.S. government's official web portal to all federal, state and local government web resources and services.